Flag for Kazakhstan Weather past 2 weeks in Aqtobe, Kazakhstan

Now
54 °F

Clear.


Feels Like: 48 °F
Forecast: 51 / 71 °F
Wind: 20 mph from Southwest

Location: Aktjubinsk

Current Time: Apr 28, 2015 at 3:52:58 AM

Latest Report: Apr 28, 2015 at 3:00 AM


Visibility: 10 mi

Pressure: 30.07 "Hg

Humidity: 38%

Dew point: 28 °F

Location of AqtobeLocation

Historic Weather in Aqtobe — Graph

°F

Aqtobe temperature yesterday

Maximum temperature yesterday: 66 °F (at 5:00 PM)
Minimum temperature yesterday: 34 °F (at 6:00 AM)
Average temperature yesterday: 51 °F

Past Weeks' High & Low Weather Summary

 TemperatureHumidityPressure
High72 °F (Apr 20, 2:00 PM)100% (Apr 16, 7:00 AM)30.27 "Hg (Apr 16, 7:00 AM)
Low27 °F (Apr 13, 6:00 AM)17% (Apr 15, 6:30 PM)29.47 "Hg (Apr 20, 2:30 PM)
Average47 °F61%29.84 "Hg
* Reported Apr 13 2:00 AM — Apr 28 2:30 AM, Aqtobe, Weather by CustomWeather, © 2015

Note: Actual official high and low records may vary slightly from our data, if they occured in-between our weather recording intervals... More about our weather records

Advertising

Aqtobe weather history for previous 24 hours

 ConditionsComfort  
Time TempWeatherWind HumidityBarometerVisibility
2:30 AM
Tue, Apr 28
54 °FClear.20 mph38%30.07 "Hg10 mi
2:00 AM54 °FClear.20 mph38%30.07 "Hg10 mi
1:30 AM54 °FClear.22 mph41%30.07 "Hg10 mi
1:00 AM52 °FClear.20 mph44%30.07 "Hg10 mi
12:30 AM52 °FClear.20 mph44%30.07 "Hg10 mi
12:00 AM52 °FClear.20 mph44%30.07 "Hg10 mi
11:30 PM
Mon, Apr 27
54 °FClear.20 mph38%30.07 "Hg10 mi
11:00 PM54 °FClear.20 mph38%30.07 "Hg10 mi
10:30 PM55 °FClear.17 mph36%30.07 "Hg10 mi
10:00 PM57 °FClear.17 mph33%30.07 "Hg10 mi
9:30 PM57 °FClear.17 mph33%30.07 "Hg10 mi
9:00 PM57 °FClear.15 mph33%30.07 "Hg10 mi
8:30 PM59 °FClear.15 mph29%30.07 "Hg10 mi
8:00 PM61 °FSunny.20 mph27%30.07 "Hg10 mi
7:30 PM63 °FSunny.26 mph24%30.07 "Hg10 mi
7:00 PM63 °FSunny.24 mph24%30.07 "Hg10 mi
6:30 PM63 °FSunny.33 mph24%30.07 "Hg10 mi
6:00 PM63 °FSunny.29 mph24%30.07 "Hg10 mi
5:30 PM63 °FSunny.29 mph24%30.07 "Hg10 mi
5:00 PM66 °FSunny.29 mph21%30.07 "Hg10 mi
4:30 PM64 °FSunny.31 mph22%30.09 "Hg10 mi
4:00 PM64 °FSunny.26 mph22%30.09 "Hg10 mi
3:30 PM61 °FSunny.26 mph23%30.09 "Hg10 mi
3:00 PM63 °FSunny.26 mph24%30.09 "Hg10 mi
2:30 PM61 °FSunny.26 mph23%30.09 "Hg10 mi
2:00 PM61 °FSunny.33 mph23%30.09 "Hg10 mi
1:30 PM59 °FSunny.31 mph25%30.09 "Hg10 mi
1:00 PM57 °FSunny.26 mph27%30.09 "Hg10 mi
12:30 PM57 °FSunny.26 mph27%30.09 "Hg10 mi
12:00 PM55 °FSunny.24 mph28%30.12 "Hg10 mi
11:30 AM55 °FSunny.17 mph31%30.09 "Hg10 mi
11:00 AM54 °FSunny.22 mph33%30.12 "Hg10 mi
10:30 AM52 °FSunny.20 mph38%30.12 "Hg10 mi
10:00 AM50 °FSunny.24 mph37%30.12 "Hg10 mi
9:30 AM48 °FSunny.26 mph40%30.12 "Hg10 mi
9:00 AM48 °FSunny.22 mph40%30.09 "Hg10 mi
8:30 AM46 °FSunny.17 mph43%30.09 "Hg10 mi
8:00 AM43 °FSunny.10 mph53%30.09 "Hg10 mi
7:30 AM41 °FSunny.15 mph57%30.09 "Hg10 mi
7:00 AM39 °FSunny.15 mph61%30.07 "Hg10 mi
6:30 AM36 °FSunny.15 mph70%30.07 "Hg10 mi
6:00 AM34 °FSunny.13 mph70%30.07 "Hg10 mi
5:30 AM37 °FClear.10 mph60%30.07 "Hg10 mi
5:00 AM37 °FClear.10 mph60%30.07 "Hg10 mi
4:30 AM39 °FClear.6 mph56%30.07 "Hg10 mi
4:00 AM37 °FClear.1 mph60%30.07 "Hg10 mi
3:30 AM37 °FPassing clouds.3 mph60%30.04 "HgN/A
3:00 AM37 °FClear.8 mph60%30.04 "Hg10 mi
Weather by CustomWeather, © 2015

See weather overviewHow to use our weather pages